E20YUC-1 Weather Reports


time (UTC)temp
F
wind
direction
speed
knots
gust
knots
rain 1hr
in
rain 24hr
in
rain mn
in
humidity
%
barometer
mb
20260505041545 95 0 2.6 5.2 0.00 0.00 0.00 58 999.0
20260505041045 95 22 4.3 4.3 0.00 0.00 0.00 58 998.7
20260505040547 95 292 0.0 0.0 0.00 0.00 0.00 58 998.9
20260505035545 94 90 0.0 2.6 0.00 0.00 0.00 59 999.1
20260505034445 93 0 0.0 4.3 0.00 0.00 0.00 59 999.1
20260505033947 93 22 0.0 1.7 0.00 0.00 0.00 60 999.0
20260505033445 93 22 0.0 0.0 0.00 0.00 0.00 60 998.8
20260505032445 93 22 1.7 1.7 0.00 0.00 0.00 61 999.0
20260505031945 93 22 0.0 1.7 0.00 0.00 0.00 62 999.0
20260505031447 92 0 0.0 1.7 0.00 0.00 0.00 63 999.2
20260505030445 92 90 0.0 3.5 0.00 0.00 0.00 63 999.3
20260505025945 91 90 0.0 5.2 0.00 0.00 0.00 64 999.4
20260505025445 91 0 0.0 0.9 0.00 0.00 0.00 65 999.5
20260505024846 91 0 0.0 3.5 0.00 0.00 0.00 65 999.6
20260505024345 91 0 0.0 3.5 0.00 0.00 0.00 66 999.5
20260505023344 90 0 0.0 0.9 0.00 0.00 0.00 66 999.4
20260505022844 90 0 5.2 5.2 0.00 0.00 0.00 66 999.4
20260505022346 90 22 1.7 2.6 0.00 0.00 0.00 67 999.4
20260505021844 89 22 0.0 2.6 0.00 0.00 0.00 67 999.4
20260505020844 89 292 0.0 4.3 0.00 0.00 0.00 69 999.3
20260505020344 88 292 1.7 5.2 0.00 0.00 0.00 69 999.4
20260505015846 88 90 2.6 3.5 0.00 0.00 0.00 70 999.4
20260505015344 88 0 1.7 8.7 0.00 0.00 0.00 71 999.3
20260505014244 87 22 0.0 5.2 0.00 0.00 0.00 71 999.3
20260505013844 87 22 0.0 3.5 0.00 0.00 0.00 71 999.2
20260505013804 87 22 3.5 3.5 0.00 0.00 0.00 71 999.2
20260505013609 87 22 0.0 1.7 0.00 0.00 0.00 72 999.3
20260505013109 87 22 0.0 2.6 0.00 0.00 0.00 72 999.1
20260505012109 86 22 1.7 4.3 0.00 0.00 0.00 73 999.0
20260505011610 86 90 0.0 3.5 0.00 0.00 0.00 74 999.1
20260505010608 85 0 0.0 0.0 0.00 0.00 0.00 74 999.1
20260505005608 84 22 3.5 3.5 0.00 0.00 0.00 75 998.7
20260505005147 84 0 3.5 3.5 0.00 0.00 0.00 76 998.6
20260505004108 82 0 1.7 1.7 0.00 0.00 0.00 77 998.8
20260505003608 81 0 1.7 4.3 0.00 0.00 0.00 78 999.0
20260505003109 81 0 0.0 0.0 0.00 0.00 0.00 78 999.1
20260505002610 80 292 0.0 0.0 0.00 0.00 0.00 78 999.2
20260505002108 80 90 0.0 0.0 0.00 0.00 0.00 79 999.1
20260505001608 80 90 0.0 0.9 0.00 0.00 0.00 79 999.1
20260505000608 80 22 0.0 0.0 0.00 0.00 0.00 79 998.8
20260505000110 79 22 0.0 0.0 0.00 0.00 0.00 79 998.7
20260504235608 79 0 0.0 0.0 0.00 0.00 0.00 79 998.7
20260504235156 79 22 0.0 0.0 0.00 0.00 0.00 80 998.6
20260504234608 79 0 1.7 1.7 0.00 0.00 0.00 80 998.5
20260504234108 79 22 0.0 0.0 0.00 0.00 0.00 80 998.3
20260504233609 79 90 0.0 0.0 0.00 0.00 0.00 80 998.2
20260504232607 78 90 0.0 0.0 0.00 0.00 0.00 80 997.7
20260504232107 78 90 0.0 0.0 0.00 0.00 0.00 80 997.7
20260504231607 78 22 0.0 0.0 0.00 0.00 0.00 80 997.7
20260504231109 78 90 0.0 0.0 0.00 0.00 0.00 80 997.6
20260504230608 78 0 0.0 0.0 0.00 0.00 0.00 80 997.2
20260504230107 78 22 0.0 0.0 0.00 0.00 0.00 80 997.1
20260504225107 78 22 0.0 1.7 0.00 0.00 0.00 80 996.8
20260504224609 78 22 0.0 0.0 0.00 0.00 0.00 80 996.7
20260504224107 78 22 0.0 0.0 0.00 0.00 0.00 80 996.6
20260504223107 79 22 1.7 3.5 0.00 0.00 0.00 79 996.3
20260504222607 79 292 1.7 1.7 0.00 0.00 0.00 79 996.3
20260504222109 79 292 0.0 0.0 0.00 0.00 0.00 79 996.4
20260504221607 79 22 0.0 2.6 0.00 0.00 0.00 79 996.5
20260504221107 79 0 0.0 0.0 0.00 0.00 0.00 78 996.4
20260504220107 79 0 1.7 1.7 0.00 0.00 0.00 78 996.6
20260504215608 79 90 0.0 0.0 0.00 0.00 0.00 78 996.7
20260504215107 79 0 0.0 0.0 0.00 0.00 0.00 77 996.7
20260504214606 79 292 1.7 1.7 0.00 0.00 0.00 77 996.7
20260504214106 79 0 0.0 1.7 0.00 0.00 0.00 77 997.0
20260504213606 79 292 0.0 0.0 0.00 0.00 0.00 77 997.0
20260504213113 79 292 0.0 0.0 0.00 0.00 0.00 77 996.9
20260504212606 80 292 0.0 0.0 0.00 0.00 0.00 77 997.1
20260504212106 79 292 0.0 0.0 0.00 0.00 0.00 77 997.2
20260504211106 79 292 0.0 0.0 0.00 0.00 0.00 77 997.3
20260504210608 79 0 0.0 0.0 0.00 0.00 0.00 77 997.3
20260504210106 79 292 0.0 0.0 0.00 0.00 0.00 77 997.6
20260504205606 79 0 0.0 0.0 0.00 0.00 0.00 78 997.7
20260504204606 79 22 9.6 9.6 0.00 0.00 0.00 78 997.7
20260504204108 79 0 0.0 0.0 0.00 0.00 0.00 78 997.7
20260504203606 79 22 0.0 0.0 0.00 0.00 0.00 78 997.9
20260504202606 79 22 0.0 0.0 0.00 0.00 0.00 78 998.0
20260504202106 78 22 0.0 0.0 0.00 0.00 0.00 78 998.0
20260504201607 78 22 0.0 0.0 0.00 0.00 0.00 78 998.0
20260504201106 78 90 0.0 0.0 0.00 0.00 0.00 79 998.2
20260504200605 78 90 0.0 0.0 0.00 0.00 0.00 79 998.2
20260504195605 78 90 0.0 2.6 0.00 0.00 0.00 79 997.9
20260504195107 78 90 0.0 2.6 0.00 0.00 0.00 79 998.3
20260504194605 78 22 1.7 2.6 0.00 0.00 0.00 79 998.3
20260504193605 78 90 0.0 1.7 0.00 0.00 0.00 80 998.6
20260504193106 78 22 0.0 1.7 0.00 0.00 0.00 80 998.6
20260504192607 78 90 0.0 2.6 0.00 0.00 0.00 80 998.8
20260504191605 79 90 3.5 5.2 0.00 0.00 0.00 80 998.8
20260504190605 79 22 0.0 3.5 0.00 0.00 0.00 79 998.5
20260504190107 79 90 0.0 2.6 0.00 0.00 0.00 79 998.4
20260504185105 79 90 0.0 0.0 0.00 0.00 0.00 79 998.0
20260504184105 79 90 0.0 1.7 0.00 0.00 0.00 79 997.9
20260504183606 79 90 1.7 7.8 0.00 0.00 0.00 79 997.8
20260504182604 79 22 4.3 4.3 0.00 0.00 0.00 79 997.9
20260504181604 79 90 4.3 4.3 0.00 0.00 0.00 78 998.3
20260504181106 80 90 0.0 7.8 0.00 0.00 0.00 78 998.4
20260504180604 80 90 0.0 3.5 0.00 0.00 0.00 78 998.5
20260504180104 80 90 1.7 7.0 0.00 0.00 0.00 78 998.8
20260504175104 80 90 5.2 8.7 0.00 0.00 0.00 77 999.1
20260504174606 80 22 0.0 7.8 0.00 0.00 0.00 78 999.1
20260504174104 81 22 0.9 7.0 0.00 0.00 0.00 78 999.1
20260504173104 81 0 0.9 10.4 0.00 0.00 0.00 77 999.5
20260504172604 81 90 3.5 6.1 0.00 0.00 0.00 77 999.5
20260504172106 82 22 6.1 8.7 0.00 0.00 0.00 76 999.5
20260504171604 82 22 7.8 9.6 0.00 0.00 0.00 77 999.4
20260504171104 82 22 0.0 10.4 0.00 0.00 0.00 77 999.4
20260504170104 83 90 7.8 7.8 0.00 0.00 0.00 77 999.6
20260504150602 84 22 0.0 0.0 0.00 0.00 0.00 74 998.7
20260504141103 84 90 0.0 0.0 0.00 0.00 0.00 72 998.3
20260504140602 84 22 0.0 0.0 0.00 0.00 0.00 72 998.3
20260504140104 84 90 0.0 0.0 0.00 0.00 0.00 72 998.1
20260504130703 85 90 0.0 0.0 0.00 0.00 0.00 71 996.7
20260504130218 85 90 0.0 0.0 0.00 0.00 0.00 71 996.6
20260504120217 85 22 0.0 0.0 0.00 0.00 0.00 73 995.7
20260504110719 85 90 0.0 5.2 0.00 0.00 0.00 74 995.2
20260504081715 100 0 0.0 8.7 0.00 0.00 0.00 49 993.6
20260504081217 101 22 3.5 7.0 0.00 0.00 0.00 49 993.6
20260504080215 102 22 2.6 5.2 0.00 0.00 0.00 49 993.7
20260504070214 104 0 0.0 4.3 0.00 0.00 0.00 48 994.4
20260504050713 99 22 0.0 4.3 0.00 0.00 0.00 53 997.4